SCP
0 0 0 0 0 0 0 0 0 0 0 0 0 0 0 0 0 0 0 0 0 0
0 0 0 0 0 0 0 0 0 0 0 0 0 0 0 0 0 0 0 0 0 0
0 0 0 0 0 0 0 0 0 0 0 0 0 0 0 0 0 0 0 0 0 0
0 0 0 0 0 0 0 0 0 0 0 0 0 0 0 0 0 0 0 0 0 0
0 0 0 0 0 0 0 0 0 0 0 0 0 0 0 0 0 0 0 0 0 0
0 0 0 0 0 0 0 0 0 0 0 0 0 0 0 0 0 0 0 0 0 0
0 0 0 0 0 0 0 0 0 0 0 0 0 0 0 0 0 0 0 0 0 0
0 0 0 0 0 0 0 0 0 0 0 0 0 0 0 0 0 0 0 0 0 0
0 0 0 0 0 0 0 0 0 0 0 0 0 -0 -0 0 0 0 0 0 0 0
0 0 0 0 0 0 0 0 0 0 0 0 0 -0 -0 0 0 0 0 0 0 0
0 0 0 0 0 0 0 0 0 0 0 0 0 -0 -0 -0 -0 0 0 0 0 0
0 0 0 0 0 0 0 0 0 0 0 0 0 0 0 0 0 0 0 0 0 0
0 0 0 0 0 0 0 0 0 0 0 0 0 0 0 0 0 0 0 0 0 0
0 0 0 0 0 0 0 0 0 0 0 0 0 0 0 0 0 0 0 0 0 0
Wind_Speed_500mb
36 39 42 44 48 54 61 63 60 55 49 42 37 36 35 39 40 41 42 44 46 48
36 39 40 43 48 55 58 58 54 48 42 37 37 38 38 41 43 44 47 47 48 49
35 38 39 41 47 51 54 52 48 43 40 38 37 38 40 43 45 47 49 49 50 51
36 37 36 39 43 47 49 47 43 39 39 39 41 43 46 48 49 51 53 53 55 60
37 36 34 35 39 43 46 43 39 37 37 39 41 42 42 45 47 50 55 57 60 63
36 34 31 31 35 40 41 40 35 36 37 38 36 39 39 40 42 41 44 48 52 56
35 33 30 29 32 35 36 36 32 32 32 35 36 35 34 31 38 43 46 52 54 55
35 35 33 29 30 32 32 31 30 30 29 33 32 29 28 35 39 43 44 44 45 48
35 36 36 31 30 29 27 27 25 25 28 27 24 25 24 33 32 33 37 41 43 45
36 37 36 33 32 28 24 27 22 22 25 24 26 29 26 26 29 31 34 40 45 46
37 36 34 32 31 27 23 25 20 18 19 23 29 32 32 32 32 36 39 40 43 45
36 35 33 29 27 23 21 20 18 16 22 31 30 30 32 36 33 34 37 40 39 41
38 34 31 26 24 20 19 15 16 20 28 35 32 29 29 30 31 30 32 32 35 38
38 32 28 28 25 21 18 18 16 21 29 31 29 24 23 26 29 32 35 39 41 43
Wind_Direction_500mb
278 286 294 298 305 310 312 313 312 310 308 306 303 298 294 287 283 283 284 283 283 283
281 289 297 302 308 313 315 313 311 308 305 306 300 299 294 291 287 284 282 281 283 282
284 292 297 304 313 318 317 315 310 305 303 300 298 297 295 291 289 287 284 282 281 280
286 291 296 307 317 321 320 319 314 310 304 302 300 295 291 287 285 283 282 281 279 276
284 288 292 306 318 325 325 325 321 315 311 306 302 300 296 294 290 288 286 283 282 283
278 281 287 303 320 326 326 326 320 317 317 314 311 306 303 301 302 300 297 294 292 289
276 277 281 296 318 325 326 327 323 324 327 321 318 315 311 312 307 305 302 298 294 292
273 274 274 286 313 319 328 329 323 326 329 329 323 321 319 318 306 304 308 308 306 302
268 270 270 278 301 311 325 328 318 323 330 330 326 325 328 316 332 331 329 328 327 322
264 268 268 272 288 300 313 328 317 321 322 332 336 338 338 334 337 337 336 337 337 334
258 265 266 270 280 293 301 304 321 320 337 342 340 341 331 329 328 330 333 332 328 336
251 260 263 266 275 286 303 286 302 314 325 338 335 324 326 326 334 337 337 333 336 343
245 254 259 261 268 274 283 285 289 306 315 331 333 329 330 333 340 341 341 345 353 356
240 249 253 252 259 262 266 273 281 295 310 325 330 336 351 352 351 353 357 360 4 7
Wind_Speed_850mb
36 39 42 44 48 54 61 63 60 55 49 42 37 36 35 39 40 41 42 44 46 48
36 39 40 43 48 55 58 58 54 48 42 37 37 38 38 41 43 44 47 47 48 49
35 38 39 41 47 51 54 52 48 43 40 38 37 38 40 43 45 47 49 49 50 51
36 37 36 39 43 47 49 47 43 39 39 39 41 43 46 48 49 51 53 53 55 60
37 36 34 35 39 43 46 43 39 37 37 39 41 42 42 45 47 50 55 57 60 63
36 34 31 31 35 40 41 40 35 36 37 38 36 39 39 40 42 41 44 48 52 56
35 33 30 29 32 35 36 36 32 32 32 35 36 35 34 31 38 43 46 52 54 55
35 35 33 29 30 32 32 31 30 30 29 33 32 29 28 35 39 43 44 44 45 48
35 36 36 31 30 29 27 27 25 25 28 27 24 25 24 33 32 33 37 41 43 45
36 37 36 33 32 28 24 27 22 22 25 24 26 29 26 26 29 31 34 40 45 46
37 36 34 32 31 27 23 25 20 18 19 23 29 32 32 32 32 36 39 40 43 45
36 35 33 29 27 23 21 20 18 16 22 31 30 30 32 36 33 34 37 40 39 41
38 34 31 26 24 20 19 15 16 20 28 35 32 29 29 30 31 30 32 32 35 38
38 32 28 28 25 21 18 18 16 21 29 31 29 24 23 26 29 32 35 39 41 43
Wind_Direction_850mb
278 286 294 298 305 310 312 313 312 310 308 306 303 298 294 287 283 283 284 283 283 283
281 289 297 302 308 313 315 313 311 308 305 306 300 299 294 291 287 284 282 281 283 282
284 292 297 304 313 318 317 315 310 305 303 300 298 297 295 291 289 287 284 282 281 280
286 291 296 307 317 321 320 319 314 310 304 302 300 295 291 287 285 283 282 281 279 276
284 288 292 306 318 325 325 325 321 315 311 306 302 300 296 294 290 288 286 283 282 283
278 281 287 303 320 326 326 326 320 317 317 314 311 306 303 301 302 300 297 294 292 289
276 277 281 296 318 325 326 327 323 324 327 321 318 315 311 312 307 305 302 298 294 292
273 274 274 286 313 319 328 329 323 326 329 329 323 321 319 318 306 304 308 308 306 302
268 270 270 278 301 311 325 328 318 323 330 330 326 325 328 316 332 331 329 328 327 322
264 268 268 272 288 300 313 328 317 321 322 332 336 338 338 334 337 337 336 337 337 334
258 265 266 270 280 293 301 304 321 320 337 342 340 341 331 329 328 330 333 332 328 336
251 260 263 266 275 286 303 286 302 314 325 338 335 324 326 326 334 337 337 333 336 343
245 254 259 261 268 274 283 285 289 306 315 331 333 329 330 333 340 341 341 345 353 356
240 249 253 252 259 262 266 273 281 295 310 325 330 336 351 352 351 353 357 360 4 7